Preview of NWS' New Version of Forecast
This preview is not operational and should not be used for support decisions.

Regional Weather Roundup (RWR)

Issued by National Weather Service (NWS)

                            
000
ASUS43 KBIS 200410
RWRND 

NORTH DAKOTA REGIONAL WEATHER ROUNDUP
NATIONAL WEATHER SERVICE BISMARCK ND
1100 PM CDT WED JUN 19 2019

NOTE: "FAIR" INDICATES FEW OR NO CLOUDS BELOW 12,000 FEET WITH NO
SIGNIFICANT WEATHER AND/OR OBSTRUCTIONS TO VISIBILITY.


NDZ001>003-009>011-017-200500-
NORTHWEST NORTH DAKOTA
  
CITY           SKY/WX    TMP DP  RH WIND       PRES   REMARKS
WILLISTON      CLOUDY    60  54  80 S7G20     29.70R                  
MINOT          CLEAR     60  50  69 SE7       29.74R                  
MINOT AFB      CLEAR     56  49  79 SE8       29.72R                  
$$
 
NDZ018>021-031>035-040>046-200500-
SOUTHWEST NORTH DAKOTA
  
CITY           SKY/WX    TMP DP  RH WIND       PRES   REMARKS
BISMARCK       CLOUDY    58  53  84 E7        29.73S                  
DICKINSON      CLOUDY    57  54  89 E12       29.70R                  
GARRISON         N/A     57  53  86 SE12      29.73R                  
HETTINGER ARPT CLOUDY    58  55  90 E13       29.69R                  
$$
 
NDZ004>008-012>016-024-026-027-054-200500-
NORTHEAST NORTH DAKOTA
  
CITY           SKY/WX    TMP DP  RH WIND       PRES   REMARKS
GRAND FORKS    CLOUDY    63  54  72 W5        29.76F                  
GRND FRKS AFB  PTCLDY    60  57  90 NW3       29.77                   
DEVILS LAKE    CLOUDY    61  49  64 SE9       29.77F                  
$$
 
NDZ022-023-025-028>030-036>039-047>053-200500-
SOUTHEAST NORTH DAKOTA
  
CITY           SKY/WX    TMP DP  RH WIND       PRES   REMARKS
FARGO          LGT RAIN  62  54  74 N8        29.76F                  
JAMESTOWN      CLOUDY    57  54  89 E7        29.76R                  
$$